{"data":{"norad_id":61663,"intl_designator":"2024-193C","name":"STARLINK-32308","alt_names":[],"object_type":"PAYLOAD","status":"ACTIVE","operator":null,"country":"US","launch_date":"2024-10-26","launch_site_code":"AFETR","launch_vehicle":null,"mission":null,"orbit_class":"UNKNOWN","rcs_meters":null,"size_class":null,"mass_kg":null,"dimensions":null,"purposes":["comms"],"wikipedia_slug":null,"has_3d_model":false,"image_url":null,"decayed_at":null,"tle_current":{"epoch":"2026-05-25T03:12:44.334144Z","epoch_age_seconds":73699,"freshness":"FRESH","line1":"1 61663U 24193C   26145.13384646  .00000091  00000+0  13841-4 0  9994","line2":"2 61663  53.1617  95.0057 0001258  83.2353 276.8793 15.34389700 88247","mean_motion":15.343897,"eccentricity":0.0001258,"inclination_deg":53.1617,"raan_deg":95.0057,"arg_perigee_deg":83.2353,"mean_anomaly_deg":276.8793,"bstar":1.3841e-5,"rev_number":8824,"period_min":93.848388059435,"perigee_km":461.87327259553,"apogee_km":463.59443570244,"semimajor_km":6840.870854149,"source":"CELESTRAK","updated_at":"2026-05-25T13:38:19.412077Z"}}}